Current weather by "City, St" or "zip code"  
 

Current Conditions: Air Force Academy, CO

Fair


65.0 F

Last Updated on Oct 31 2020, 1:58 pm MDT
Humidity: 10%
Wind Speed: NW 13.8 mph
Barometer 30.21 in
Dewpoint: 7.3 F
Visibility: 10.00 mi
Precip: --
Heat Index: NA
Wind Chill: NA
Current conditions at:

Air Force Academy, CO (KAFF)

Lat: 38.96667 Lon: 104.81667

Local Radar Image active severe weather and emergency alerts image image weather storm and storm spotter reports image weather observation monitoring service image
Local
Radar
Active
Alerts
Storm Reports Obs
Monitoring

Sign-up For Email & Text Message Weather Alert Notification Services



Advertise Here

Observation History for Air Force Academy, CO


Time Wind
(mph)
Vis
(mi)
Weather Precip (in) Temperature (F) Relative
Humidity
Wind
Chill
(F)
Heat
Index
(F)
Pressure
Air Dwpt altimeter
(in)
sea level
(mb)
Rmks
1:58 pm MDT NW 13.8 10.00 Fair -- 65.0 7.3 10% NA NA 30.21 1017.0
11:58 am MDT W 13.8 G 23.0 10.00 Fair -- 64.0 8.1 11% NA NA 30.20 1016.2
10:58 am MDT NW 8.1 G 21.9 10.00 Fair -- 61.0 6.3 11% 60 NA 30.20 1020.0
9:58 am MDT N 10.4 10.00 Fair -- 58.0 7.5 13% 56 NA 30.20 1020.0
8:58 am MDT N 0.0 10.00 Fair -- 50.0 11.3 21% NA NA 30.17 1020.1
7:58 am MDT NE 6.9 10.00 Fair -- 40.0 9.7 28% 35 NA 30.13 1019.3
6:58 am MDT W 8.1 G 20.7 10.00 Fair -- 51.0 5.2 15% 48 NA 30.09 1014.3
5:58 am MDT W 5.8 10.00 Fair -- 46.0 5.9 19% 43 NA 30.06 1013.8
4:58 am MDT W 8.1 10.00 Fair -- 55.0 1.2 11% 53 NA 30.03 1010.7
3:58 am MDT NE 12.7 G 20.7 10.00 Fair -- 52.0 4.5 14% 48 NA 30.00 1010.1
2:58 am MDT N 5.8 10.00 Fair -- 53.0 6.6 15% 51 NA 29.99 1009.3
1:58 am MDT N 9.2 10.00 Fair -- 47.0 8.8 21% 43 NA 30.00 1010.6
12:58 am MDT W 11.5 10.00 Fair -- 53.0 9.0 17% 49 NA 30.01 1010.5
11:58 pm MDT W 18.4 G 27.6 10.00 Fair -- 52.0 13.3 21% 47 NA 30.01 1010.5
10:58 pm MDT N 0.0 10.00 Fair -- 33.0 27.3 79% NA NA 30.05 1015.3
9:58 pm MDT NW 6.9 10.00 Fair -- 33.0 26.6 76% 27 NA 30.06 1016.9
8:58 pm MDT N 8.1 10.00 Fair -- 35.0 26.8 71% 28 NA 30.06 1018.1
7:58 pm MDT N 9.2 10.00 Fair -- 40.0 27.7 63% 34 NA 30.07 1019.1
6:58 pm MDT SE 4.6 10.00 NULL -- 50.0 26.8 40% 48 NA 30.07 1017.8
5:58 pm MDT S 10.4 10.00 Fair -- 53.0 26.2 36% 50 NA 30.07 1017.2
4:58 pm MDT SE 13.8 10.00 Fair -- 59.0 25.7 28% 56 NA 30.07 1016.0
3:58 pm MDT S 11.5 10.00 Fair -- 60.0 27.7 29% 58 NA 30.08 1015.7
2:58 pm MDT S 13.8 10.00 Fair -- 60.0 29.3 31% 58 NA 30.10 1017.1
1:58 pm MDT S 12.7 10.00 Fair -- 60.0 28.6 30% 58 NA 30.13 1017.5

Regional Weather Observation


Wilkerson Pass, CO (K4BM)

Fair
39.0 F

Denver - Centennial Airport, CO (KAPA)

A Few Clouds
56.0 F

Air Force Academy, CO (KAFF)

Fair
65.0 F

Buckley Air Force Base Airport, CO (KBKF)

A Few Clouds
57.0 F

Meadow Lake Airport, CO (KFLY)

Fair
65.0 F

City of Colorado Springs Municipal Airport, CO (KCOS)

Fair
69.0 F